This demonstration page uses our WeatherBlox Daily Observations layout. Learn more.

40.92945, -100.16068

Hourly Observations for September 10, 2018

Temp ( °F °C ) Dew Point ( °F °C ) Humidity (%) Winds ( mph kmh ) Pressure ( in mb ) Visibility ( mi km ) Precip ( " mm )
12:15 am 00:15 Partly Cloudy 62 16.5 59 15 91 91 SSE 8 13 29.94 1014 10 16.0934 0 0
12:35 am 00:35 Partly Cloudy 62 16.6 59 15.1 91 91 SSE 10 17 29.94 1014 10 16.0934 0 0
12:55 am 00:55 Partly Cloudy 62 16.6 59 15 90 90 SSE 10 17 29.94 1014 10 16.0934 0 0
1:15 am 01:15 Partly Cloudy 62 16.5 58 14.7 89 89 SSE 9 15 29.94 1014 10 16.0934 0 0
1:35 am 01:35 Clear 61 16.3 58 14.6 90 90 SSE 8 13 29.97 1015 10 16.0934 0 0
1:55 am 01:55 Clear 61 16 58 14.5 91 91 SSE 7 11 29.97 1015 10 16.0934 0 0
2:15 am 02:15 Clear 60 15.8 58 14.4 91 91 SSE 7 11 29.97 1015 10 16.0934 0 0
2:35 am 02:35 Clear 60 15.8 58 14.4 91 91 SSE 7 11 29.97 1015 10 16.0934 0 0
2:55 am 02:55 Partly Cloudy 61 16 58 14.2 89 89 SSE 8 13 29.97 1015 10 16.0934 0 0
3:15 am 03:15 Partly Cloudy 61 16 57 14.1 89 89 S 9 15 29.97 1015 10 16.0934 0 0
3:35 am 03:35 Partly Cloudy 61 15.9 57 14 89 89 S 7 11 29.97 1015 10 16.0934 0 0
3:55 am 03:55 Clear 61 16 57 14 88 88 S 8 13 29.97 1015 10 16.0934 0 0
4:15 am 04:15 Clear 61 16 57 13.8 87 87 S 9 15 29.97 1015 10 16.0934 0 0
4:35 am 04:35 Clear 61 16 57 13.7 86 86 S 9 15 29.97 1015 10 16.0934 0 0
4:55 am 04:55 Clear 60 15.7 57 13.7 88 88 S 7 11 29.97 1015 10 16.0934 0 0
5:15 am 05:15 Clear 60 15.7 57 13.7 88 88 S 7 11 29.97 1015 10 16.0934 0 0
5:35 am 05:35 Clear 60 15.5 57 13.7 89 89 S 8 13 29.97 1015 10 16.0934 0 0
5:55 am 05:55 Clear 60 15.7 57 13.8 89 89 S 10 17 29.97 1015 10 16.0934 0 0
6:15 am 06:15 Clear 60 15.5 56 13.6 89 89 S 7 11 29.97 1015 10 16.0934 0 0
6:35 am 06:35 Clear 60 15.3 57 13.7 90 90 S 7 11 29.97 1015 10 16.0934 0 0
6:55 am 06:55 Clear 59 15.1 56 13.5 90 90 S 7 11 29.97 1015 10 16.0934 0 0
7:15 am 07:15 Clear 60 15.3 56 13.6 90 90 SSE 8 13 29.97 1015 10 16.0934 0 0
7:35 am 07:35 Sunny 60 15.3 57 13.7 90 90 SSE 7 11 29.97 1015 10 16.0934 0 0
7:55 am 07:55 Sunny 60 15.6 57 13.8 89 89 S 8 13 29.97 1015 10 16.0934 0 0
8:15 am 08:15 Sunny 61 16 57 13.9 87 87 S 8 13 29.97 1015 10 16.0934 0 0
8:35 am 08:35 Sunny 62 16.7 57 14.1 85 85 S 9 15 30 1016 10 16.0934 0 0
8:55 am 08:55 Sunny 64 17.5 58 14.4 82 82 S 10 17 29.97 1015 10 16.0934 0 0
9:15 am 09:15 Sunny 65 18.4 58 14.5 78 78 S 7 11 29.97 1015 10 16.0934 0 0
9:35 am 09:35 Sunny 66 19.1 58 14.5 75 75 SSW 13 20 29.97 1015 10 16.0934 0 0
9:55 am 09:55 Sunny 68 19.9 59 14.8 73 73 S 14 22 29.97 1015 10 16.0934 0 0
10:15 am 10:15 Sunny 69 20.5 59 14.9 70 70 S 10 17 29.91 1013 10 16.0934 0 0
10:35 am 10:35 Sunny 70 21.2 60 15.4 70 70 S 10 17 29.91 1013 10 16.0934 0 0
10:55 am 10:55 Sunny 72 22 60 15.5 67 67 S 13 20 29.91 1013 10 16.0934 0 0
11:15 am 11:15 Sunny 73 22.7 60 15.7 65 65 S 14 22 29.91 1013 10 16.0934 0 0
11:35 am 11:35 Sunny 74 23.1 60 15.3 62 62 S 13 20 29.91 1013 10 16.0934 0 0
11:55 am 11:55 Sunny 75 24 60 15.5 59 59 S 15 24 29.88 1012 10 16.0934 0 0
12:15 pm 12:15 Sunny 76 24.6 61 16.2 60 60 S 15 24 29.88 1012 10 16.0934 0 0
12:35 pm 12:35 Sunny 77 24.8 62 16.4 60 60 S 15 24 29.88 1012 10 16.0934 0 0
12:55 pm 12:55 Sunny 77 25.1 61 16.3 58 58 S 14 22 29.85 1011 10 16.0934 0 0
1:15 pm 13:15 Sunny 78 25.4 62 16.4 58 58 S 15 24 29.85 1011 10 16.0934 0 0
1:35 pm 13:35 Sunny 79 26.1 63 17.2 58 58 S 15 24 29.85 1011 10 16.0934 0 0
1:55 pm 13:55 Sunny 79 25.9 63 17.1 58 58 S 17 28 29.85 1011 10 16.0934 0 0
2:15 pm 14:15 Sunny 79 26 63 17.2 58 58 S 10 17 29.85 1011 10 16.0934 0 0
2:35 pm 14:35 Sunny 80 26.5 63 17.3 57 57 S 17 28 29.85 1011 10 16.0934 0 0
2:55 pm 14:55 Sunny 80 26.5 63 17.2 57 57 S 18 30 29.85 1011 10 16.0934 0 0
3:15 pm 15:15 Sunny 80 26.6 62 16.9 55 55 SSE 16 26 29.8 1009 10 16.0934 0 0
3:35 pm 15:35 Sunny 80 26.8 63 17.1 55 55 S 18 30 29.8 1009 10 16.0934 0 0
3:55 pm 15:55 Sunny 81 27 63 17.1 55 55 S 17 28 29.8 1009 10 16.0934 0 0
4:15 pm 16:15 Sunny 81 27.1 63 17.3 55 55 SSE 15 24 29.8 1009 10 16.0934 0 0
4:35 pm 16:35 Sunny 81 27 63 17.2 55 55 S 15 24 29.8 1009 10 16.0934 0 0
4:55 pm 16:55 Sunny 81 27.1 63 17.3 55 55 S 17 28 29.8 1009 10 16.0934 0 0
5:15 pm 17:15 Sunny 81 27 62 16.8 54 54 S 16 26 29.77 1008 10 16.0934 0 0
5:35 pm 17:35 Sunny 80 26.7 62 16.8 55 55 SSE 15 24 29.77 1008 10 16.0934 0 0
5:55 pm 17:55 Sunny 80 26.5 62 16.9 56 56 S 16 26 29.77 1008 10 16.0934 0 0
6:15 pm 18:15 Sunny 79 26.1 63 17.1 58 58 SSE 13 20 29.83 1010 10 16.0934 0 0
6:35 pm 18:35 Sunny 77 25 62 16.7 60 60 SSE 15 24 29.83 1010 10 16.0934 0 0
6:55 pm 18:55 Sunny 76 24.2 62 16.7 63 63 SSE 13 20 29.83 1010 10 16.0934 0 0
7:15 pm 19:15 Sunny 75 24.1 63 17.1 65 65 SSE 10 17 29.83 1010 10 16.0934 0 0
7:35 pm 19:35 Sunny 74 23.5 63 17 67 67 SSE 12 19 29.83 1010 10 16.0934 0 0
7:55 pm 19:55 Sunny 73 22.9 62 16.7 68 68 SSE 12 19 29.83 1010 10 16.0934 0 0
8:15 pm 20:15 Clear 72 22.3 62 16.9 72 72 SE 10 17 29.83 1010 10 16.0934 0 0
8:35 pm 20:35 Clear 71 21.8 62 16.7 73 73 SE 10 17 29.83 1010 10 16.0934 0 0
8:55 pm 20:55 Clear 70 21.3 61 16.2 73 73 SE 9 15 29.85 1011 10 16.0934 0 0
9:15 pm 21:15 Clear 69 20.7 61 15.9 74 74 SE 9 15 29.85 1011 10 16.0934 0 0
9:35 pm 21:35 Clear 69 20.4 60 15.5 74 74 SE 10 17 29.85 1011 10 16.0934 0 0
9:55 pm 21:55 Clear 68 20 59 15.2 74 74 SE 12 19 29.88 1012 10 16.0934 0 0
10:15 pm 22:15 Clear 67 19.5 59 15.2 76 76 SSE 10 17 29.91 1013 10 16.0934 0 0
10:35 pm 22:35 Clear 66 19 59 15.1 78 78 SE 9 15 29.91 1013 10 16.0934 0 0
10:55 pm 22:55 Clear 66 18.8 59 15 79 79 SSE 9 15 29.91 1013 10 16.0934 0 0
11:15 pm 23:15 Clear 66 18.9 58 14.7 77 77 SSE 10 17 29.91 1013 10 16.0934 0 0
11:35 pm 23:35 Clear 66 19.1 58 14.5 75 75 SSE 10 17 29.91 1013 10 16.0934 0 0
11:55 pm 23:55 Clear 66 18.7 58 14.6 77 77 SSE 12 19 29.91 1013 10 16.0934 0 0

Powered by AerisWeather